Home   Weather   Białystok   Past weeks

Flag for Poland Past Weather in Białystok, Poland — Yesterday and Last 2 Weeks

Now
64 °F

Passing clouds.


Feels Like: 64 °F
Forecast: 49 / 69 °F
Wind: 3 mph from Northeast

Location: Bialystok

Current Time: May 25, 2017 at 12:43:59 pm

Latest Report: May 25, 2017 at 11:00 am


Visibility: 18 mi

Pressure: 30.00 "Hg

Humidity: 48%

Dew Point: 44 °F

Location of BiałystokLocation

Past Weather in Białystok — Graph

°F

Białystok Temperature Yesterday

Maximum temperature yesterday: 70 °F (at 1:00 pm)
Minimum temperature yesterday: 42 °F (at 4:00 am)
Average temperature yesterday: 58 °F

High & Low Weather Summary for the Past Weeks

 TemperatureHumidityPressure
High78 °F (May 20, 4:00 pm)98% (May 14, 6:00 am)30.45 "Hg (May 14, 6:00 am)
Low33 °F (May 12, 4:00 am)30% (May 14, 3:00 pm)29.72 "Hg (May 11, 2:00 am)
Average57 °F64%30.04 "Hg
* Reported May 10 11:00 am — May 25 11:00 am, Białystok. Weather by CustomWeather, © 2017

Note: Actual official high and low records may vary slightly from our data, if they occured in-between our weather recording intervals... More about our weather records

Advertising

Białystok Weather History for the Previous 24 Hours

Scroll right to see more
 ConditionsComfort  
Time TempWeatherWind HumidityBarometerVisibility
11:00 am
Thu, May 25
64 °FPassing clouds.3 mph48%30.00 "Hg18 mi
10:00 am62 °FPassing clouds.3 mph50%30.00 "Hg22 mi
9:00 am60 °FPassing clouds.3 mph58%30.00 "Hg22 mi
8:00 am57 °FPassing clouds.2 mph70%29.99 "Hg18 mi
7:00 am55 °FPassing clouds.2 mph76%29.98 "Hg14 mi
6:00 am51 °FPassing clouds.2 mph85%29.97 "Hg18 mi
5:00 am50 °FScattered clouds.2 mph90%29.95 "Hg14 mi
4:00 am51 °FOvercast.2 mph87%29.94 "Hg14 mi
3:00 am53 °FOvercast.2 mph85%29.93 "Hg16 mi
2:00 am55 °FLots of rain. Overcast.2 mph90%29.92 "Hg0 mi
1:00 am55 °FOvercast.2 mph90%29.92 "Hg11 mi
12:00 am56 °FOvercast.2 mph91%29.92 "Hg14 mi
11:00 pm
Wed, May 24
55 °FSprinkles. Overcast.1 mph95%29.92 "Hg4 mi
10:00 pm55 °FSprinkles. Overcast.2 mph92%29.93 "Hg8 mi
9:00 pm55 °FRain showers. Overcast.3 mph89%29.92 "Hg6 mi
8:00 pm60 °FOvercast.5 mph67%29.89 "Hg28 mi
7:00 pm65 °FOvercast.2 mph55%29.86 "Hg25 mi
6:00 pm66 °FOvercast.2 mph53%29.85 "Hg22 mi
5:00 pm67 °FSprinkles. Overcast.2 mph51%29.85 "Hg19 mi
4:00 pm67 °FOvercast.5 mph50%29.85 "Hg14 mi
3:00 pm68 °FOvercast.2 mph47%29.85 "Hg19 mi
2:00 pm69 °FOvercast.3 mph43%29.85 "Hg19 mi
1:00 pm70 °FPartly sunny.2 mph43%29.86 "Hg17 mi
12:00 pm68 °FPartly sunny.2 mph45%29.88 "Hg25 mi
Weather by CustomWeather, © 2017

See weather overviewHow to use our weather pages